This is the latest recevied weather packets stored in our database for station/object K3SV. If no packets are shown the sender has not sent any weather packets the latest 10 day(s).
| Time | Temp. | Humidity | Pressure | Rain* | Wind** | Luminosity | Snow |
|---|---|---|---|---|---|---|---|
| 1777815452 | 18.89° C | 88% | 1017.7 hPa | 0 mm | - | 160 W/m² | - |
| 1777815149 | 18.89° C | 88% | 1017.7 hPa | 0 mm | - | 165 W/m² | - |
| 1777814845 | 18.89° C | 88% | 1017.7 hPa | 0 mm | - | 174 W/m² | - |
| 1777814541 | 18.89° C | 88% | 1017.7 hPa | 0 mm | - | 258 W/m² | - |
| 1777814239 | 18.89° C | 87% | 1017.8 hPa | 0 mm | - | 321 W/m² | - |
| 1777813936 | 18.33° C | 90% | 1017.7 hPa | 0 mm | - | 317 W/m² | - |
| 1777813633 | 18.33° C | 90% | 1017.5 hPa | 0 mm | - | 127 W/m² | - |
| 1777813330 | 17.78° C | 91% | 1017.5 hPa | 0 mm | - | 192 W/m² | - |
| 1777813028 | 17.78° C | 91% | 1017.4 hPa | 0 mm | - | 171 W/m² | - |
| 1777812726 | 17.78° C | 92% | 1017.5 hPa | 0 mm | - | 132 W/m² | - |
| 1777812422 | 17.78° C | 92% | 1017.5 hPa | 0 mm | - | 132 W/m² | - |
| 1777812120 | 17.78° C | 92% | 1017.4 hPa | 0 mm | - | 91 W/m² | - |
| 1777811818 | 17.78° C | 92% | 1017.3 hPa | 0 mm | - | 95 W/m² | - |
| 1777811515 | 17.22° C | 93% | 1017 hPa | 0 mm | - | 100 W/m² | - |
| 1777811211 | 17.22° C | 94% | 1017.1 hPa | 0 mm | - | 64 W/m² | - |
| 1777810909 | 17.22° C | 94% | 1017 hPa | 0 mm | - | 64 W/m² | - |
| 1777810604 | 17.22° C | 95% | 1017 hPa | 0 mm | - | 81 W/m² | - |
| 1777810302 | 16.67° C | 95% | 1016.9 hPa | 0 mm | - | 87 W/m² | - |
| 1777809997 | 16.67° C | 96% | 1016.8 hPa | 0 mm | - | 72 W/m² | - |
| 1777809696 | 16.67° C | 96% | 1016.8 hPa | 0 mm | - | 47 W/m² | - |
| 1777809393 | 16.67° C | 96% | 1016.8 hPa | 0 mm | - | 31 W/m² | - |
| 1777809091 | 16.67° C | 96% | 1016.7 hPa | 0 mm | - | 31 W/m² | - |
| 1777808788 | 16.67° C | 96% | 1016.9 hPa | 0 mm | - | 27 W/m² | - |
| 1777808485 | 16.67° C | 96% | 1016.9 hPa | 0 mm | - | 31 W/m² | - |
| 1777808182 | 16.67° C | 96% | 1016.7 hPa | 0 mm | - | 27 W/m² | - |
* Rain latest hour (hover to see other rain measurements)
** Current wind speed in m/s (hover to see current wind gust speed)